FDX1580 KRDU-KJFK

Flight info

Callsign FDX1580
Flight time 1h 21m
Altitude 35000
Route HURIC4 FEBEL GUILD SAWED Q108 SIE CAMRN4
Aircraft B763/H-SDE3FGHIM3RWXY/LB1

Departure

Time 2026-05-07 00:28
Airport Raleigh-Durham International Airport (KRDU)

Arrival

Time 2026-05-07 01:50
Airport John F. Kennedy International Airport (KJFK)
Time Latitude Longitude Altitude Speed Heading
2026-05-06 23:56 35.88874 -78.77860 425 ft 0 kts 157°
2026-05-07 00:19 35.88887 -78.77866 413 ft 3 kts 157°
2026-05-07 00:20 35.88903 -78.77874 419 ft 3 kts 155°
2026-05-07 00:20 35.88918 -78.77890 413 ft 3 kts 98°
2026-05-07 00:20 35.88918 -78.77906 413 ft 0 kts 64°
2026-05-07 00:22 35.88945 -78.77869 416 ft 9 kts 46°
2026-05-07 00:22 35.88980 -78.77823 418 ft 7 kts 47°
2026-05-07 00:23 35.89063 -78.77719 417 ft 19 kts 45°
2026-05-07 00:23 35.89135 -78.77630 418 ft 12 kts 43°
2026-05-07 00:23 35.89189 -78.77606 429 ft 6 kts 344°
2026-05-07 00:23 35.89215 -78.77626 427 ft 2 kts 322°
2026-05-07 00:24 35.89216 -78.77627 427 ft 0 kts 321°
2026-05-07 00:25 35.89218 -78.77630 426 ft 0 kts 321°
2026-05-07 00:25 35.89227 -78.77640 424 ft 6 kts 318°
2026-05-07 00:25 35.89258 -78.77676 418 ft 7 kts 317°
2026-05-07 00:25 35.89286 -78.77709 421 ft 6 kts 316°
2026-05-07 00:26 35.89301 -78.77727 422 ft 0 kts 316°
2026-05-07 00:26 35.89311 -78.77739 424 ft 7 kts 315°
2026-05-07 00:26 35.89337 -78.77776 420 ft 5 kts 307°
2026-05-07 00:27 35.89346 -78.77841 427 ft 6 kts 257°
2026-05-07 00:27 35.89342 -78.77848 428 ft 0 kts 244°
2026-05-07 00:27 35.89336 -78.77861 419 ft 11 kts 238°
2026-05-07 00:28 35.89199 -78.78036 418 ft 65 kts 225°
2026-05-07 00:28 35.88675 -78.78679 425 ft 150 kts 225°
2026-05-07 00:28 35.87758 -78.79809 837 ft 205 kts 225°
2026-05-07 00:28 35.86659 -78.81166 1698 ft 239 kts 226°
2026-05-07 00:29 35.85482 -78.82594 2376 ft 238 kts 225°
2026-05-07 00:29 35.84298 -78.84000 3059 ft 236 kts 225°
2026-05-07 00:30 35.80631 -78.88173 5262 ft 243 kts 225°
2026-05-07 00:30 35.79335 -78.89575 5672 ft 251 kts 225°
2026-05-07 00:30 35.78012 -78.90983 5820 ft 251 kts 225°
2026-05-07 00:30 35.76637 -78.92301 5882 ft 253 kts 212°
2026-05-07 00:31 35.74900 -78.92797 5954 ft 267 kts 182°
2026-05-07 00:31 35.73077 -78.92134 5998 ft 285 kts 153°
2026-05-07 00:31 35.71559 -78.90485 6055 ft 298 kts 135°
2026-05-07 00:31 35.70222 -78.88520 6048 ft 299 kts 132°
2026-05-07 00:32 35.68962 -78.86539 6014 ft 297 kts 131°
2026-05-07 00:32 35.67730 -78.84543 6225 ft 292 kts 131°
2026-05-07 00:32 35.66493 -78.82521 6540 ft 300 kts 131°
2026-05-07 00:32 35.65242 -78.80463 6816 ft 301 kts 131°
2026-05-07 00:33 35.64095 -78.78294 7081 ft 307 kts 114°
2026-05-07 00:33 35.63688 -78.75700 7281 ft 315 kts 86°
2026-05-07 00:33 35.64174 -78.73096 7384 ft 312 kts 61°
2026-05-07 00:33 35.65205 -78.70766 7419 ft 311 kts 55°
2026-05-07 00:34 35.66341 -78.68493 7404 ft 310 kts 54°
2026-05-07 00:34 35.67502 -78.66279 7384 ft 307 kts 53°
2026-05-07 00:34 35.68655 -78.64106 7606 ft 302 kts 53°
2026-05-07 00:34 35.69819 -78.61936 7881 ft 309 kts 53°
2026-05-07 00:35 35.71016 -78.59722 8166 ft 310 kts 53°
2026-05-07 00:35 35.72214 -78.57542 8664 ft 310 kts 52°
2026-05-07 00:35 35.73443 -78.55321 9205 ft 317 kts 52°
2026-05-07 00:35 35.74690 -78.53063 9714 ft 320 kts 52°
2026-05-07 00:36 35.75927 -78.50817 10211 ft 323 kts 52°
2026-05-07 00:36 35.77226 -78.48468 10718 ft 348 kts 52°
2026-05-07 00:36 35.78655 -78.45905 11250 ft 368 kts 52°
2026-05-07 00:36 35.80102 -78.43316 11601 ft 370 kts 52°
2026-05-07 00:37 35.81775 -78.40946 11720 ft 363 kts 33°
2026-05-07 00:37 35.83913 -78.39365 11849 ft 356 kts 21°
2026-05-07 00:37 35.86145 -78.38035 11873 ft 356 kts 20°
2026-05-07 00:37 35.88371 -78.36759 11880 ft 356 kts 22°
2026-05-07 00:38 35.90362 -78.34910 11879 ft 364 kts 45°
2026-05-07 00:38 35.91707 -78.32278 11904 ft 371 kts 67°
2026-05-07 00:38 35.92278 -78.29182 11929 ft 373 kts 84°
2026-05-07 00:38 35.92470 -78.25990 11943 ft 374 kts 87°
2026-05-07 00:39 35.92681 -78.22791 11931 ft 373 kts 82°
2026-05-07 00:39 35.93041 -78.19653 12362 ft 371 kts 82°
2026-05-07 00:39 35.93353 -78.16451 12781 ft 377 kts 83°
2026-05-07 00:39 35.93648 -78.13226 13210 ft 384 kts 83°
2026-05-07 00:40 35.93981 -78.09857 13735 ft 407 kts 82°
2026-05-07 00:40 35.94327 -78.06348 14209 ft 412 kts 83°
2026-05-07 00:40 35.94652 -78.02881 14664 ft 414 kts 83°
2026-05-07 00:40 35.94981 -77.99345 15132 ft 417 kts 83°
2026-05-07 00:41 35.95316 -77.95769 15623 ft 421 kts 82°
2026-05-07 00:41 35.95865 -77.92210 16086 ft 423 kts 68°
2026-05-07 00:41 35.97047 -77.88913 16616 ft 421 kts 60°
2026-05-07 00:41 35.98368 -77.85735 17132 ft 424 kts 58°
2026-05-07 00:42 35.99833 -77.82552 17655 ft 426 kts 52°
2026-05-07 00:42 36.01538 -77.79540 18195 ft 429 kts 50°
2026-05-07 00:42 36.03199 -77.76520 18659 ft 432 kts 51°
2026-05-07 00:42 36.04892 -77.73439 19132 ft 435 kts 51°
2026-05-07 00:43 36.06603 -77.70337 19580 ft 439 kts 51°
2026-05-07 00:43 36.08326 -77.67202 20078 ft 443 kts 51°
2026-05-07 00:43 36.10066 -77.64035 20565 ft 447 kts 51°
2026-05-07 00:43 36.11812 -77.60856 21104 ft 453 kts 51°
2026-05-07 00:44 36.13602 -77.57590 21603 ft 459 kts 51°
2026-05-07 00:44 36.15387 -77.54328 22130 ft 459 kts 52°
2026-05-07 00:44 36.17176 -77.51051 22650 ft 461 kts 52°
2026-05-07 00:44 36.18990 -77.47737 23184 ft 466 kts 52°
2026-05-07 00:45 36.20808 -77.44419 23689 ft 471 kts 52°
2026-05-07 00:45 36.22638 -77.41069 24150 ft 475 kts 52°
2026-05-07 00:45 36.24484 -77.37673 24615 ft 479 kts 52°
2026-05-07 00:45 36.26353 -77.34237 25089 ft 482 kts 52°
2026-05-07 00:46 36.28237 -77.30777 25570 ft 486 kts 52°
2026-05-07 00:46 36.30198 -77.27355 26055 ft 487 kts 46°
2026-05-07 00:46 36.32400 -77.24161 26582 ft 490 kts 44°
2026-05-07 00:46 36.34792 -77.21145 27075 ft 490 kts 36°
2026-05-07 00:47 36.37356 -77.18339 27603 ft 495 kts 38°
2026-05-07 00:47 36.39880 -77.15476 28112 ft 499 kts 37°
2026-05-07 00:47 36.42481 -77.12581 28656 ft 504 kts 37°
2026-05-07 00:47 36.45097 -77.09653 29188 ft 509 kts 37°
2026-05-07 00:48 36.47735 -77.06691 29732 ft 514 kts 37°
2026-05-07 00:48 36.50407 -77.03689 30205 ft 520 kts 37°
2026-05-07 00:48 36.53098 -77.00665 30702 ft 524 kts 36°
2026-05-07 00:48 36.55813 -76.97610 31193 ft 528 kts 36°
2026-05-07 00:49 36.58522 -76.94564 31703 ft 534 kts 35°
2026-05-07 00:49 36.61277 -76.91458 32233 ft 539 kts 34°
2026-05-07 00:49 36.64074 -76.88301 32757 ft 543 kts 34°
2026-05-07 00:49 36.66889 -76.85121 33270 ft 553 kts 33°
2026-05-07 00:50 36.69759 -76.81874 33817 ft 562 kts 33°
2026-05-07 00:50 36.72685 -76.78565 34329 ft 571 kts 33°
2026-05-07 00:50 36.75647 -76.75207 34688 ft 582 kts 33°
2026-05-07 00:50 36.78656 -76.71783 34829 ft 585 kts 32°
2026-05-07 00:51 36.84676 -76.64971 34918 ft 586 kts 33°
2026-05-07 00:51 36.90700 -76.58089 34918 ft 586 kts 33°
2026-05-07 00:52 36.96693 -76.51252 34939 ft 588 kts 33°
2026-05-07 00:52 37.02716 -76.44354 34900 ft 585 kts 33°
2026-05-07 00:53 37.08704 -76.37495 34904 ft 585 kts 33°
2026-05-07 00:53 37.14715 -76.30587 34905 ft 585 kts 33°
2026-05-07 00:54 37.20709 -76.23684 34918 ft 588 kts 33°
2026-05-07 00:54 37.26701 -76.16766 34927 ft 588 kts 33°
2026-05-07 00:55 37.32705 -76.09819 34912 ft 583 kts 33°
2026-05-07 00:55 37.38660 -76.02917 34949 ft 585 kts 33°
2026-05-07 00:56 37.44647 -75.95955 34931 ft 587 kts 33°
2026-05-07 00:56 37.50635 -75.88984 34921 ft 586 kts 32°
2026-05-07 00:57 37.57025 -75.82999 34926 ft 562 kts 18°
2026-05-07 00:57 37.63820 -75.77967 34898 ft 565 kts 20°
2026-05-07 00:58 37.70519 -75.72944 34913 ft 563 kts 20°
2026-05-07 00:58 37.77238 -75.67896 34919 ft 563 kts 20°
2026-05-07 00:59 37.87302 -75.59933 34923 ft 573 kts 25°
2026-05-07 01:00 37.93866 -75.54244 34915 ft 573 kts 25°
2026-05-07 01:00 38.00372 -75.48571 34948 ft 574 kts 24°
2026-05-07 01:01 38.06988 -75.42857 34913 ft 570 kts 21°
2026-05-07 01:01 38.13661 -75.37442 34896 ft 567 kts 22°
2026-05-07 01:02 38.20313 -75.32019 34932 ft 568 kts 22°
2026-05-07 01:02 38.23678 -75.29459 34898 ft 550 kts 14°
2026-05-07 01:02 38.27120 -75.27775 34905 ft 516 kts
2026-05-07 01:02 38.30472 -75.27007 34914 ft 476 kts 351°
2026-05-07 01:03 38.33703 -75.26831 34914 ft 456 kts 348°
2026-05-07 01:03 38.36808 -75.26742 34897 ft 441 kts 348°
2026-05-07 01:03 38.39862 -75.26359 34881 ft 450 kts 360°
2026-05-07 01:04 38.45922 -75.23706 34925 ft 470 kts 11°
2026-05-07 01:04 38.51887 -75.19989 34912 ft 486 kts 18°
2026-05-07 01:05 38.57646 -75.15263 34905 ft 492 kts 20°
2026-05-07 01:05 38.63372 -75.10559 34920 ft 491 kts 20°
2026-05-07 01:06 38.69131 -75.05822 34886 ft 493 kts 21°
2026-05-07 01:06 38.74885 -75.01064 34895 ft 491 kts 21°
2026-05-07 01:07 38.80626 -74.96328 34897 ft 490 kts 21°
2026-05-07 01:07 38.86321 -74.91612 34739 ft 488 kts 20°
2026-05-07 01:07 38.89174 -74.89250 34468 ft 489 kts 21°
2026-05-07 01:08 38.92033 -74.86866 34197 ft 488 kts 21°
2026-05-07 01:08 38.94882 -74.84502 33932 ft 487 kts 21°
2026-05-07 01:08 38.97688 -74.82169 33646 ft 487 kts 21°
2026-05-07 01:08 39.00571 -74.79768 33350 ft 489 kts 21°
2026-05-07 01:09 39.03390 -74.77418 33087 ft 491 kts 21°
2026-05-07 01:09 39.06255 -74.75026 32792 ft 492 kts 21°
2026-05-07 01:09 39.09139 -74.72619 32501 ft 493 kts 21°
2026-05-07 01:09 39.12010 -74.70218 32205 ft 494 kts 22°
2026-05-07 01:10 39.14886 -74.67812 31917 ft 493 kts 22°
2026-05-07 01:10 39.17777 -74.65390 31626 ft 493 kts 22°
2026-05-07 01:10 39.20645 -74.62987 31348 ft 494 kts 22°
2026-05-07 01:10 39.23542 -74.60555 31111 ft 495 kts 21°
2026-05-07 01:11 39.26433 -74.58124 30827 ft 498 kts 21°
2026-05-07 01:11 39.29313 -74.55709 30485 ft 502 kts 22°
2026-05-07 01:11 39.32232 -74.53246 30130 ft 502 kts 22°
2026-05-07 01:11 39.35149 -74.50786 29722 ft 501 kts 22°
2026-05-07 01:12 39.38064 -74.48334 29331 ft 499 kts 21°
2026-05-07 01:12 39.41091 -74.46373 28897 ft 474 kts
2026-05-07 01:12 39.44217 -74.45598 28584 ft 445 kts 348°
2026-05-07 01:12 39.47180 -74.46015 28329 ft 410 kts 330°
2026-05-07 01:13 39.49857 -74.47133 28218 ft 413 kts 335°
2026-05-07 01:13 39.52787 -74.47349 28174 ft 446 kts 353°
2026-05-07 01:13 39.55900 -74.46356 28144 ft 477 kts
2026-05-07 01:13 39.58910 -74.44208 27740 ft 503 kts 27°
2026-05-07 01:14 39.61457 -74.41064 27343 ft 518 kts 44°
2026-05-07 01:14 39.63390 -74.37083 26961 ft 527 kts 61°
2026-05-07 01:14 39.64531 -74.32600 26563 ft 529 kts 78°
2026-05-07 01:14 39.64819 -74.27853 26174 ft 525 kts 95°
2026-05-07 01:15 39.64231 -74.23231 25797 ft 514 kts 112°
2026-05-07 01:15 39.62831 -74.19036 25423 ft 498 kts 129°
2026-05-07 01:15 39.60763 -74.15583 25053 ft 475 kts 146°
2026-05-07 01:15 39.58210 -74.13070 24689 ft 450 kts 162°
2026-05-07 01:16 39.55482 -74.11196 24304 ft 440 kts 165°
2026-05-07 01:16 39.52769 -74.09495 23905 ft 436 kts 166°
2026-05-07 01:16 39.50030 -74.07841 23512 ft 433 kts 167°
2026-05-07 01:16 39.47265 -74.06202 23047 ft 430 kts 167°
2026-05-07 01:17 39.44593 -74.04649 22596 ft 425 kts 168°
2026-05-07 01:17 39.41831 -74.03689 22154 ft 397 kts 187°
2026-05-07 01:17 39.39187 -74.03910 21762 ft 367 kts 206°
2026-05-07 01:17 39.36965 -74.05212 21368 ft 339 kts 226°
2026-05-07 01:18 39.35434 -74.07358 20979 ft 318 kts 246°
2026-05-07 01:18 39.34554 -74.09946 20601 ft 316 kts 254°
2026-05-07 01:18 39.33854 -74.12658 20171 ft 318 kts 256°
2026-05-07 01:18 39.33229 -74.15374 19751 ft 317 kts 257°
2026-05-07 01:19 39.32632 -74.18125 19331 ft 316 kts 257°
2026-05-07 01:19 39.32252 -74.19933 19047 ft 315 kts 257°
2026-05-07 01:19 39.31687 -74.22662 18646 ft 314 kts 257°
2026-05-07 01:19 39.30931 -74.26276 18230 ft 313 kts 257°
2026-05-07 01:20 39.30378 -74.28981 18080 ft 312 kts 257°
2026-05-07 01:20 39.30011 -74.30806 18053 ft 312 kts 258°
2026-05-07 01:20 39.29295 -74.34409 18020 ft 315 kts 258°
2026-05-07 01:20 39.28756 -74.37158 18019 ft 315 kts 258°
2026-05-07 01:21 39.28227 -74.39877 17989 ft 313 kts 258°
2026-05-07 01:21 39.27868 -74.41735 17986 ft 312 kts 258°
2026-05-07 01:21 39.27357 -74.44414 17987 ft 313 kts 258°
2026-05-07 01:21 39.26849 -74.47140 17987 ft 314 kts 258°
2026-05-07 01:22 39.26337 -74.49877 17985 ft 314 kts 258°
2026-05-07 01:22 39.25818 -74.52615 17982 ft 313 kts 258°
2026-05-07 01:22 39.25302 -74.55324 17982 ft 313 kts 258°
2026-05-07 01:22 39.25006 -74.58091 17976 ft 312 kts 274°
2026-05-07 01:23 39.25652 -74.60768 18021 ft 320 kts 297°
2026-05-07 01:23 39.27192 -74.62909 18034 ft 337 kts 319°
2026-05-07 01:23 39.29383 -74.64132 18038 ft 357 kts 340°
2026-05-07 01:23 39.31929 -74.64212 18029 ft 378 kts
2026-05-07 01:24 39.34467 -74.63074 18027 ft 397 kts 22°
2026-05-07 01:24 39.36645 -74.60857 18014 ft 413 kts 43°
2026-05-07 01:24 39.38267 -74.57684 18035 ft 424 kts 64°
2026-05-07 01:24 39.39062 -74.54052 18028 ft 429 kts 83°
2026-05-07 01:25 39.39425 -74.50231 17983 ft 429 kts 78°
2026-05-07 01:25 39.40379 -74.46638 17979 ft 421 kts 57°
2026-05-07 01:25 39.42096 -74.43645 17999 ft 410 kts 37°
2026-05-07 01:25 39.44300 -74.41348 18051 ft 406 kts 29°
2026-05-07 01:26 39.46598 -74.39253 18011 ft 405 kts 27°
2026-05-07 01:26 39.48913 -74.37190 17998 ft 404 kts 28°
2026-05-07 01:26 39.51146 -74.34935 17978 ft 408 kts 35°
2026-05-07 01:26 39.53278 -74.32529 17985 ft 406 kts 34°
2026-05-07 01:27 39.55437 -74.30184 17982 ft 406 kts 33°
2026-05-07 01:27 39.57591 -74.27825 17982 ft 407 kts 34°
2026-05-07 01:27 39.59751 -74.25449 17982 ft 407 kts 34°
2026-05-07 01:27 39.61912 -74.23075 17978 ft 407 kts 34°
2026-05-07 01:28 39.64076 -74.20695 17983 ft 406 kts 34°
2026-05-07 01:28 39.66229 -74.18329 17980 ft 406 kts 34°
2026-05-07 01:28 39.68393 -74.15946 17983 ft 407 kts 34°
2026-05-07 01:28 39.70551 -74.13573 17983 ft 407 kts 34°
2026-05-07 01:29 39.72681 -74.11213 17984 ft 407 kts 34°
2026-05-07 01:29 39.74831 -74.08830 17981 ft 407 kts 34°
2026-05-07 01:29 39.76989 -74.06456 17986 ft 406 kts 34°
2026-05-07 01:29 39.79146 -74.04080 17992 ft 407 kts 34°
2026-05-07 01:30 39.81302 -74.01701 18011 ft 407 kts 33°
2026-05-07 01:30 39.83548 -73.99457 17987 ft 406 kts 30°
2026-05-07 01:30 39.85823 -73.97378 17985 ft 401 kts 25°
2026-05-07 01:30 39.88237 -73.95648 17992 ft 396 kts 20°
2026-05-07 01:31 39.90674 -73.93949 17993 ft 398 kts 21°
2026-05-07 01:31 39.93100 -73.92218 17995 ft 398 kts 21°
2026-05-07 01:31 39.95520 -73.90496 17992 ft 397 kts 21°
2026-05-07 01:31 39.97966 -73.88799 17985 ft 396 kts 20°
2026-05-07 01:32 40.00512 -73.87542 18023 ft 392 kts
2026-05-07 01:32 40.03192 -73.87473 18011 ft 382 kts 343°
2026-05-07 01:32 40.05664 -73.88510 17556 ft 366 kts 325°
2026-05-07 01:32 40.07852 -73.90041 17104 ft 360 kts 323°
2026-05-07 01:33 40.10043 -73.91622 16644 ft 359 kts 323°
2026-05-07 01:33 40.12311 -73.92924 16184 ft 370 kts 338°
2026-05-07 01:33 40.14961 -73.93166 15708 ft 387 kts 359°
2026-05-07 01:33 40.17590 -73.92195 15333 ft 401 kts 20°
2026-05-07 01:34 40.19928 -73.90165 15173 ft 400 kts 34°
2026-05-07 01:34 40.22070 -73.87835 15086 ft 403 kts 36°
2026-05-07 01:34 40.24195 -73.85424 15023 ft 408 kts 37°
2026-05-07 01:34 40.26321 -73.82954 15005 ft 409 kts 38°
2026-05-07 01:35 40.28453 -73.80452 14794 ft 412 kts 37°
2026-05-07 01:35 40.30579 -73.77976 14529 ft 408 kts 37°
2026-05-07 01:35 40.32626 -73.75431 14254 ft 405 kts 47°
2026-05-07 01:35 40.34101 -73.72328 13951 ft 390 kts 69°
2026-05-07 01:36 40.34916 -73.69146 13678 ft 368 kts 75°
2026-05-07 01:36 40.35610 -73.65848 13412 ft 370 kts 76°
2026-05-07 01:36 40.36307 -73.62664 13115 ft 368 kts 66°
2026-05-07 01:36 40.37649 -73.59866 12811 ft 360 kts 42°
2026-05-07 01:37 40.39528 -73.57791 12602 ft 350 kts 30°
2026-05-07 01:37 40.41508 -73.55958 12323 ft 347 kts 28°
2026-05-07 01:37 40.43508 -73.54183 12039 ft 346 kts 28°
2026-05-07 01:37 40.45501 -73.52433 11759 ft 344 kts 27°
2026-05-07 01:38 40.47485 -73.50699 11553 ft 340 kts 27°
2026-05-07 01:38 40.49433 -73.48997 11459 ft 332 kts 27°
2026-05-07 01:38 40.51343 -73.47322 11419 ft 331 kts 27°
2026-05-07 01:38 40.53280 -73.45747 11403 ft 328 kts 15°
2026-05-07 01:39 40.55460 -73.45038 10938 ft 318 kts 354°
2026-05-07 01:39 40.57636 -73.44997 10391 ft 312 kts 349°
2026-05-07 01:39 40.59808 -73.45085 9802 ft 306 kts 348°
2026-05-07 01:39 40.61841 -73.45186 9118 ft 286 kts 348°
2026-05-07 01:40 40.63895 -73.45326 8568 ft 302 kts 347°
2026-05-07 01:40 40.66023 -73.45514 7985 ft 310 kts 347°
2026-05-07 01:40 40.67607 -73.45674 7529 ft 301 kts 347°
2026-05-07 01:40 40.69641 -73.45881 6921 ft 295 kts 347°
2026-05-07 01:41 40.71624 -73.46094 6312 ft 285 kts 347°
2026-05-07 01:41 40.73602 -73.46323 5658 ft 280 kts 347°
2026-05-07 01:41 40.75515 -73.46560 5043 ft 274 kts 347°
2026-05-07 01:41 40.77334 -73.46824 4499 ft 248 kts 340°
2026-05-07 01:42 40.78729 -73.47733 4176 ft 205 kts 313°
2026-05-07 01:42 40.79765 -73.48946 4128 ft 195 kts 309°
2026-05-07 01:42 40.80728 -73.50177 3973 ft 191 kts 308°
2026-05-07 01:42 40.81650 -73.51394 3807 ft 190 kts 307°
2026-05-07 01:43 40.82589 -73.52662 3618 ft 189 kts 307°
2026-05-07 01:43 40.83452 -73.53924 3438 ft 187 kts 302°
2026-05-07 01:43 40.83885 -73.55436 3152 ft 171 kts 264°
2026-05-07 01:43 40.83477 -73.56900 2613 ft 171 kts 246°
2026-05-07 01:44 40.83303 -73.58412 1914 ft 171 kts 271°
2026-05-07 01:44 40.83219 -73.59963 1724 ft 160 kts 259°
2026-05-07 01:44 40.83040 -73.61322 2318 ft 153 kts 259°
2026-05-07 01:44 40.82819 -73.62696 3262 ft 156 kts 258°
2026-05-07 01:45 40.82564 -73.64193 3772 ft 175 kts 257°
2026-05-07 01:45 40.82282 -73.65774 3553 ft 178 kts 256°
2026-05-07 01:45 40.81671 -73.67186 3300 ft 179 kts 235°
2026-05-07 01:45 40.81188 -73.68644 3021 ft 173 kts 258°
2026-05-07 01:46 40.80580 -73.69975 2750 ft 180 kts 220°
2026-05-07 01:46 40.79338 -73.70389 2479 ft 194 kts 184°
2026-05-07 01:46 40.77983 -73.70234 2228 ft 196 kts 180°
2026-05-07 01:46 40.76663 -73.69999 2102 ft 186 kts 179°
2026-05-07 01:47 40.75419 -73.69723 1982 ft 178 kts 178°
2026-05-07 01:47 40.74208 -73.69439 1983 ft 177 kts 177°
2026-05-07 01:47 40.73010 -73.69462 1966 ft 167 kts 204°
2026-05-07 01:48 40.70959 -73.70845 1402 ft 159 kts 212°
2026-05-07 01:48 40.69922 -73.71485 1204 ft 158 kts 210°
2026-05-07 01:48 40.68922 -73.72102 1040 ft 162 kts 210°
2026-05-07 01:48 40.67917 -73.72757 833 ft 162 kts 212°
2026-05-07 01:49 40.66965 -73.73504 595 ft 151 kts 213°
2026-05-07 01:49 40.66101 -73.74236 405 ft 149 kts 212°
2026-05-07 01:49 40.65202 -73.74954 238 ft 149 kts 210°
2026-05-07 01:49 40.64322 -73.75635 36 ft 144 kts 211°
2026-05-07 01:50 40.63670 -73.76153 27 ft 56 kts 210°
2026-05-07 01:50 40.63410 -73.76362 29 ft 40 kts 213°
2026-05-07 01:50 40.63261 -73.76574 29 ft 18 kts 246°
2026-05-07 01:50 40.63241 -73.76661 29 ft 8 kts 261°
2026-05-07 01:51 40.63244 -73.76713 28 ft 4 kts 283°
2026-05-07 01:51 40.63279 -73.76809 29 ft 18 kts 301°
2026-05-07 01:51 40.63360 -73.76988 30 ft 35 kts 300°
2026-05-07 01:51 40.63469 -73.77199 31 ft 15 kts 328°
2026-05-07 01:52 40.63518 -73.77194 29 ft 12 kts 29°
2026-05-07 01:52 40.63623 -73.77112 32 ft 17 kts 29°
2026-05-07 01:52 40.63722 -73.77037 31 ft 15 kts 30°
2026-05-07 01:52 40.63804 -73.76973 32 ft 13 kts 31°
2026-05-07 01:53 40.63874 -73.76917 26 ft 11 kts 31°
2026-05-07 01:53 40.63955 -73.76854 32 ft 26 kts 31°
2026-05-07 01:53 40.64084 -73.76753 32 ft 18 kts 31°
2026-05-07 01:53 40.64184 -73.76675 32 ft 16 kts 30°
2026-05-07 01:54 40.64275 -73.76604 31 ft 14 kts 31°
2026-05-07 01:54 40.64353 -73.76543 27 ft 12 kts 31°
2026-05-07 01:54 40.64432 -73.76483 31 ft 14 kts 30°
2026-05-07 01:54 40.64512 -73.76421 30 ft 12 kts 29°
2026-05-07 01:55 40.64578 -73.76410 28 ft 7 kts 337°
2026-05-07 01:55 40.64688 -73.76627 31 ft 41 kts 301°
2026-05-07 01:55 40.64827 -73.76940 27 ft 38 kts 299°
2026-05-07 01:55 40.64943 -73.77197 28 ft 30 kts 300°
2026-05-07 01:56 40.65073 -73.77480 32 ft 46 kts 301°
2026-05-07 01:56 40.65230 -73.77836 29 ft 43 kts 299°
2026-05-07 01:56 40.65378 -73.78159 27 ft 38 kts 302°
2026-05-07 01:56 40.65463 -73.78312 27 ft 13 kts 324°
2026-05-07 01:57 40.65541 -73.78336 31 ft 11 kts
2026-05-07 01:57 40.65599 -73.78356 28 ft 6 kts 323°
2026-05-07 01:57 40.65651 -73.78464 30 ft 19 kts 302°
2026-05-07 01:57 40.65713 -73.78603 29 ft 16 kts 300°
2026-05-07 01:58 40.65776 -73.78707 30 ft 12 kts 335°
2026-05-07 01:58 40.65840 -73.78699 27 ft 8 kts 22°